This is the latest recevied weather packets stored in our database for station/object W8CEN. If no packets are shown the sender has not sent any weather packets the latest 10 day(s).
| Time | Temp. | Humidity | Pressure | Rain* | Wind** | Luminosity | Snow |
|---|---|---|---|---|---|---|---|
| 1777516039 | 7.78° C | 94% | 991.2 hPa | 0 mm | - | 0 W/m² | - |
| 1777515737 | 7.78° C | 94% | 991.1 hPa | 0 mm | - | 0 W/m² | - |
| 1777515433 | 7.78° C | 94% | 991.1 hPa | 0 mm | - | 0 W/m² | - |
| 1777515130 | 7.78° C | 94% | 991.1 hPa | 0 mm | - | 0 W/m² | - |
| 1777514827 | 7.78° C | 94% | 990.9 hPa | 3.05 mm | - | 0 W/m² | - |
| 1777514524 | 8.33° C | 94% | 990.9 hPa | 4.32 mm | - | 0 W/m² | - |
| 1777514221 | 8.33° C | 93% | 991.1 hPa | 4.83 mm | - | 0 W/m² | - |
| 1777513917 | 8.33° C | 93% | 990.8 hPa | 3.05 mm | - | 0 W/m² | - |
| 1777513614 | 8.33° C | 93% | 990.8 hPa | 0 mm | - | 0 W/m² | - |
| 1777513311 | 8.33° C | 93% | 990.8 hPa | 0 mm | - | 0 W/m² | - |
| 1777513007 | 8.33° C | 93% | 990.4 hPa | 0 mm | - | 0 W/m² | - |
| 1777512703 | 8.33° C | 93% | 990.4 hPa | 0 mm | - | 0 W/m² | - |
| 1777512400 | 8.33° C | 93% | 990.3 hPa | 0 mm | - | 0 W/m² | - |
| 1777512097 | 8.33° C | 93% | 990.4 hPa | 0 mm | - | 0 W/m² | - |
| 1777511795 | 8.33° C | 93% | 990.6 hPa | 0 mm | - | 0 W/m² | - |
| 1777511492 | 8.33° C | 93% | 990.5 hPa | 0 mm | - | 0 W/m² | - |
| 1777511189 | 8.33° C | 92% | 990.4 hPa | 0 mm | - | 0 W/m² | - |
| 1777510885 | 8.33° C | 92% | 990.5 hPa | 0 mm | - | 0 W/m² | - |
| 1777510582 | 8.33° C | 92% | 990.3 hPa | 0 mm | - | 0 W/m² | - |
| 1777510277 | 8.33° C | 92% | 990.3 hPa | 1.78 mm | - | 0 W/m² | - |
| 1777509974 | 8.89° C | 92% | 990.2 hPa | 1.78 mm | - | 0 W/m² | - |
| 1777509670 | 8.33° C | 93% | 990.3 hPa | 0 mm | - | 0 W/m² | - |
| 1777509367 | 8.33° C | 93% | 990.3 hPa | 0 mm | - | 0 W/m² | - |
| 1777509064 | 8.33° C | 93% | 990.1 hPa | 0 mm | - | 0 W/m² | - |
| 1777508761 | 8.89° C | 93% | 990.1 hPa | 0 mm | - | 1 W/m² | - |
* Rain latest hour (hover to see other rain measurements)
** Current wind speed in m/s (hover to see current wind gust speed)